Time,TemperatureF,DewpointF,PressureIn,WindDirection,WindDirectionDegrees,WindSpeedMPH,WindSpeedGustMPH,Humidity,HourlyPrecipIn,Conditions,Clouds,dailyrainin,SoftwareType,DateUTC
2013-05-20 00:02:00,80.0,70.0,29.69,SSE,150,14.0,29.0,71,0.00,,,0.00,,2013-05-20 05:02:00,
2013-05-20 00:12:00,79.0,69.0,29.70,SSE,161,12.0,28.0,71,0.00,,,0.00,,2013-05-20 05:12:00,
2013-05-20 00:21:00,79.0,69.0,29.70,SSE,161,12.0,28.0,71,0.00,,,0.00,,2013-05-20 05:21:00,
2013-05-20 00:32:00,79.0,69.0,29.70,SSE,157,12.0,28.0,72,0.00,,,0.00,,2013-05-20 05:32:00,
2013-05-20 00:42:00,79.0,69.0,29.70,SSE,157,12.0,28.0,72,0.00,,,0.00,,2013-05-20 05:42:00,
2013-05-20 00:52:00,78.0,68.0,29.70,SE,128,14.0,23.0,72,0.00,,,0.00,,2013-05-20 05:52:00,
2013-05-20 01:01:00,78.0,69.0,29.70,SSE,158,12.0,26.0,73,0.00,,,0.00,,2013-05-20 06:01:00,
2013-05-20 01:11:00,77.0,68.0,29.70,South,177,13.0,24.0,74,0.00,,,0.00,,2013-05-20 06:11:00,
2013-05-20 01:21:00,77.0,68.0,29.70,South,177,13.0,24.0,74,0.00,,,0.00,,2013-05-20 06:21:00,
2013-05-20 01:32:00,77.0,68.0,29.70,SSE,156,9.0,24.0,75,0.00,,,0.00,,2013-05-20 06:32:00,
2013-05-20 01:41:00,77.0,68.0,29.70,SSE,156,9.0,24.0,75,0.00,,,0.00,,2013-05-20 06:41:00,
2013-05-20 01:52:00,76.0,68.0,29.70,SSE,149,11.0,22.0,76,0.00,,,0.00,,2013-05-20 06:52:00,
2013-05-20 02:01:00,76.0,69.0,29.70,SSE,154,14.0,24.0,79,0.00,,,0.00,,2013-05-20 07:01:00,
2013-05-20 02:12:00,76.0,69.0,29.70,SSE,154,14.0,24.0,79,0.00,,,0.00,,2013-05-20 07:12:00,
2013-05-20 02:21:00,75.0,68.0,29.69,SE,145,10.0,31.0,80,0.00,,,0.00,,2013-05-20 07:21:00,
2013-05-20 02:32:00,75.0,69.0,29.69,SE,145,14.0,24.0,82,0.00,,,0.00,,2013-05-20 07:32:00,
2013-05-20 02:42:00,75.0,69.0,29.69,SE,145,14.0,24.0,82,0.00,,,0.00,,2013-05-20 07:42:00,
2013-05-20 02:52:00,74.0,68.0,29.69,SSE,155,14.0,21.0,83,0.00,,,0.00,,2013-05-20 07:52:00,
2013-05-20 03:01:00,74.0,68.0,29.69,SSE,163,14.0,24.0,83,0.00,,,0.00,,2013-05-20 08:01:00,
2013-05-20 03:11:00,74.0,68.0,29.69,SSE,163,14.0,24.0,83,0.00,,,0.00,,2013-05-20 08:11:00,
2013-05-20 03:21:00,74.0,69.0,29.68,SSE,152,13.0,23.0,84,0.00,,,0.00,,2013-05-20 08:21:00,
2013-05-20 03:31:00,74.0,69.0,29.68,SSE,154,11.0,20.0,84,0.00,,,0.00,,2013-05-20 08:31:00,
2013-05-20 03:41:00,74.0,69.0,29.68,SSE,154,11.0,20.0,84,0.00,,,0.00,,2013-05-20 08:41:00,
2013-05-20 03:52:00,74.0,69.0,29.68,SSE,161,10.0,21.0,84,0.00,,,0.00,,2013-05-20 08:52:00,
2013-05-20 04:01:00,74.0,69.0,29.69,SE,127,12.0,26.0,84,0.00,,,0.00,,2013-05-20 09:01:00,
2013-05-20 04:12:00,74.0,69.0,29.69,SE,127,12.0,26.0,84,0.00,,,0.00,,2013-05-20 09:12:00,
2013-05-20 04:21:00,74.0,69.0,29.69,SSE,159,11.0,22.0,84,0.00,,,0.00,,2013-05-20 09:21:00,
2013-05-20 04:32:00,74.0,69.0,29.68,SE,146,12.0,20.0,84,0.00,,,0.00,,2013-05-20 09:32:00,
2013-05-20 04:43:00,74.0,69.0,29.68,SE,146,12.0,20.0,84,0.00,,,0.00,,2013-05-20 09:43:00,
2013-05-20 04:53:00,74.0,69.0,29.69,SSE,152,11.0,23.0,84,0.00,,,0.00,,2013-05-20 09:53:00,
2013-05-20 05:03:00,74.0,69.0,29.69,SSE,159,9.0,16.0,84,0.00,,,0.00,,2013-05-20 10:03:00,
2013-05-20 05:12:00,74.0,69.0,29.69,SSE,159,9.0,16.0,84,0.00,,,0.00,,2013-05-20 10:12:00,
2013-05-20 05:22:00,74.0,69.0,29.69,SSE,162,10.0,23.0,84,0.00,,,0.00,,2013-05-20 10:22:00,
2013-05-20 05:32:00,74.0,69.0,29.70,SE,129,11.0,23.0,84,0.00,,,0.00,,2013-05-20 10:32:00,
2013-05-20 05:42:00,74.0,69.0,29.70,SE,129,11.0,23.0,84,0.00,,,0.00,,2013-05-20 10:42:00,
2013-05-20 05:52:00,74.0,68.0,29.70,SSE,165,12.0,20.0,83,0.00,,,0.00,,2013-05-20 10:52:00,
2013-05-20 06:02:00,74.0,69.0,29.70,SSE,156,9.0,18.0,84,0.00,,,0.00,,2013-05-20 11:02:00,
2013-05-20 06:12:00,74.0,69.0,29.70,SSE,156,9.0,18.0,84,0.00,,,0.00,,2013-05-20 11:12:00,
2013-05-20 06:21:00,74.0,69.0,29.70,SE,130,8.0,20.0,84,0.00,,,0.00,,2013-05-20 11:21:00,
2013-05-20 06:32:00,73.0,68.0,29.70,SSE,148,12.0,23.0,85,0.00,,,0.00,,2013-05-20 11:32:00,
2013-05-20 06:41:00,73.0,68.0,29.70,SSE,148,12.0,23.0,85,0.00,,,0.00,,2013-05-20 11:41:00,
2013-05-20 06:52:00,73.0,69.0,29.70,SE,146,6.0,13.0,86,0.00,,,0.00,,2013-05-20 11:52:00,
2013-05-20 07:01:00,73.0,69.0,29.72,SSE,149,8.0,15.0,87,0.00,,,0.00,,2013-05-20 12:01:00,
2013-05-20 07:11:00,73.0,69.0,29.72,SSE,149,8.0,15.0,87,0.00,,,0.00,,2013-05-20 12:11:00,
2013-05-20 07:21:00,73.0,69.0,29.72,SSE,152,6.0,13.0,88,0.00,,,0.00,,2013-05-20 12:21:00,
2013-05-20 07:31:00,73.0,69.0,29.73,SSE,154,6.0,15.0,87,0.00,,,0.00,,2013-05-20 12:31:00,
2013-05-20 07:41:00,73.0,69.0,29.73,SSE,154,6.0,15.0,87,0.00,,,0.00,,2013-05-20 12:41:00,
2013-05-20 07:52:00,73.0,69.0,29.73,SE,145,8.0,14.0,87,0.00,,,0.00,,2013-05-20 12:52:00,
2013-05-20 08:01:00,74.0,70.0,29.73,SE,141,8.0,14.0,86,0.00,,,0.00,,2013-05-20 13:01:00,
2013-05-20 08:11:00,74.0,70.0,29.74,SSE,160,9.0,16.0,86,0.00,,,0.00,,2013-05-20 13:11:00,
2013-05-20 08:22:00,74.0,70.0,29.74,SSE,160,9.0,16.0,86,0.00,,,0.00,,2013-05-20 13:22:00,
2013-05-20 08:31:00,75.0,70.0,29.74,SE,144,9.0,16.0,85,0.00,,,0.00,,2013-05-20 13:31:00,
2013-05-20 08:41:00,75.0,70.0,29.74,SSE,163,10.0,16.0,84,0.00,,,0.00,,2013-05-20 13:41:00,
2013-05-20 08:52:00,75.0,70.0,29.74,SSE,163,10.0,16.0,84,0.00,,,0.00,,2013-05-20 13:52:00,
2013-05-20 09:01:00,76.0,70.0,29.75,SSE,149,9.0,18.0,83,0.00,,,0.00,,2013-05-20 14:01:00,
2013-05-20 09:11:00,76.0,70.0,29.75,SSE,149,9.0,18.0,83,0.00,,,0.00,,2013-05-20 14:11:00,
2013-05-20 09:22:00,76.0,70.0,29.75,SSE,150,13.0,25.0,81,0.00,,,0.00,,2013-05-20 14:22:00,
2013-05-20 09:32:00,77.0,70.0,29.75,SE,142,13.0,23.0,80,0.00,,,0.00,,2013-05-20 14:32:00,
2013-05-20 09:41:00,77.0,70.0,29.75,SE,142,13.0,23.0,80,0.00,,,0.00,,2013-05-20 14:41:00,
2013-05-20 09:52:00,77.0,70.0,29.76,SSE,147,10.0,20.0,80,0.00,,,0.00,,2013-05-20 14:52:00,
2013-05-20 10:01:00,77.0,70.0,29.76,South,172,10.0,25.0,79,0.00,,,0.00,,2013-05-20 15:01:00,
2013-05-20 10:11:00,78.0,70.0,29.75,SE,146,13.0,20.0,77,0.00,,,0.00,,2013-05-20 15:11:00,
2013-05-20 10:21:00,78.0,70.0,29.75,SE,146,13.0,20.0,77,0.00,,,0.00,,2013-05-20 15:21:00,
2013-05-20 10:33:00,79.0,70.0,29.75,South,169,15.0,29.0,75,0.00,,,0.00,,2013-05-20 15:33:00,
2013-05-20 10:42:00,80.0,71.0,29.75,SSW,205,15.0,26.0,75,0.00,,,0.00,,2013-05-20 15:42:00,
2013-05-20 10:53:00,80.0,71.0,29.75,SSW,205,15.0,26.0,75,0.00,,,0.00,,2013-05-20 15:53:00,
2013-05-20 11:03:00,80.0,71.0,29.75,South,175,14.0,23.0,73,0.00,,,0.00,,2013-05-20 16:03:00,
2013-05-20 11:12:00,80.0,71.0,29.75,South,175,14.0,23.0,73,0.00,,,0.00,,2013-05-20 16:12:00,
2013-05-20 11:22:00,81.0,72.0,29.74,SSE,155,3.0,16.0,73,0.00,,,0.00,,2013-05-20 16:22:00,
2013-05-20 11:33:00,84.0,72.0,29.74,SSW,200,1.0,10.0,67,0.00,,,0.00,,2013-05-20 16:33:00,
2013-05-20 11:42:00,84.0,72.0,29.74,SSW,200,1.0,10.0,67,0.00,,,0.00,,2013-05-20 16:42:00,
2013-05-20 11:53:00,84.0,70.0,29.75,SSW,207,2.0,13.0,64,0.00,,,0.00,,2013-05-20 16:53:00,
2013-05-20 12:02:00,84.0,71.0,29.74,South,187,3.0,14.0,65,0.00,,,0.00,,2013-05-20 17:02:00,
2013-05-20 12:12:00,84.0,71.0,29.74,SSW,193,3.0,10.0,65,0.00,,,0.00,,2013-05-20 17:12:00,
2013-05-20 12:22:00,84.0,71.0,29.74,SSW,193,3.0,10.0,65,0.00,,,0.00,,2013-05-20 17:22:00,
2013-05-20 12:33:00,84.0,70.0,29.73,SW,235,4.0,12.0,64,0.00,,,0.00,,2013-05-20 17:33:00,
2013-05-20 12:45:00,84.0,70.0,29.73,SW,235,4.0,12.0,64,0.00,,,0.00,,2013-05-20 17:45:00,
2013-05-20 12:53:00,85.0,71.0,29.73,SSW,201,3.0,12.0,63,0.00,,,0.00,,2013-05-20 17:53:00,
2013-05-20 13:02:00,86.0,71.0,29.72,SSW,195,5.0,13.0,61,0.00,,,0.00,,2013-05-20 18:02:00,
2013-05-20 13:12:00,87.0,71.0,29.71,East,84,3.0,16.0,60,0.00,,,0.00,,2013-05-20 18:12:00,
2013-05-20 13:23:00,87.0,71.0,29.71,East,84,3.0,16.0,60,0.00,,,0.00,,2013-05-20 18:23:00,
2013-05-20 13:32:00,87.0,71.0,29.71,South,181,3.0,12.0,60,0.00,,,0.00,,2013-05-20 18:32:00,
2013-05-20 13:41:00,88.0,72.0,29.70,SSW,198,3.0,12.0,59,0.00,,,0.00,,2013-05-20 18:41:00,
2013-05-20 13:55:00,88.0,72.0,29.70,SSW,198,3.0,12.0,59,0.00,,,0.00,,2013-05-20 18:55:00,
2013-05-20 14:04:00,88.0,72.0,29.70,WNW,290,3.0,16.0,59,0.00,,,0.00,,2013-05-20 19:04:00,
2013-05-20 14:11:00,88.0,71.0,29.70,SSW,198,3.0,15.0,58,0.00,,,0.00,,2013-05-20 19:11:00,
2013-05-20 14:21:00,88.0,71.0,29.70,SSW,198,3.0,15.0,58,0.00,,,0.00,,2013-05-20 19:21:00,
2013-05-20 14:32:00,89.0,72.0,29.69,SE,125,6.0,23.0,57,0.00,,,0.00,,2013-05-20 19:32:00,
2013-05-20 14:41:00,89.0,72.0,29.69,South,188,2.0,9.0,58,0.00,,,0.00,,2013-05-20 19:41:00,
2013-05-20 14:52:00,89.0,72.0,29.69,South,188,2.0,9.0,58,0.00,,,0.00,,2013-05-20 19:52:00,
2013-05-20 15:01:00,90.0,72.0,29.68,SSW,198,2.0,10.0,56,0.00,,,0.00,,2013-05-20 20:01:00,
2013-05-20 15:12:00,91.0,73.0,29.68,SSW,199,2.0,7.0,56,0.00,,,0.00,,2013-05-20 20:12:00,
2013-05-20 15:21:00,91.0,73.0,29.68,SSW,199,2.0,7.0,56,0.00,,,0.00,,2013-05-20 20:21:00,
2013-05-20 15:32:00,90.0,72.0,29.67,SE,142,4.0,12.0,56,0.00,,,0.00,,2013-05-20 20:32:00,
2013-05-20 15:42:00,90.0,73.0,29.66,SW,236,3.0,13.0,57,0.00,,,0.00,,2013-05-20 20:42:00,
2013-05-20 15:52:00,90.0,73.0,29.66,SW,236,3.0,13.0,57,0.00,,,0.00,,2013-05-20 20:52:00,
2013-05-20 16:01:00,90.0,73.0,29.64,SSW,195,1.0,12.0,58,0.00,,,0.00,,2013-05-20 21:01:00,
2013-05-20 16:11:00,90.0,72.0,29.62,South,179,1.0,20.0,56,0.00,,,0.00,,2013-05-20 21:11:00,
2013-05-20 16:21:00,90.0,72.0,29.62,South,179,1.0,20.0,56,0.00,,,0.00,,2013-05-20 21:21:00,
2013-05-20 16:32:00,90.0,72.0,29.61,South,175,2.0,18.0,56,0.00,,,0.00,,2013-05-20 21:32:00,
2013-05-20 16:43:00,90.0,72.0,29.60,SSW,199,6.0,18.0,55,0.00,,,0.00,,2013-05-20 21:43:00,
2013-05-20 16:53:00,90.0,72.0,29.60,SSW,199,6.0,18.0,55,0.00,,,0.00,,2013-05-20 21:53:00,
2013-05-20 17:02:00,90.0,72.0,29.61,South,171,4.0,12.0,55,0.00,,,0.00,,2013-05-20 22:02:00,
2013-05-20 17:12:00,90.0,72.0,29.62,SSE,147,3.0,20.0,55,0.00,,,0.00,,2013-05-20 22:12:00,
2013-05-20 17:23:00,90.0,72.0,29.62,SSE,147,3.0,20.0,55,0.00,,,0.00,,2013-05-20 22:23:00,
2013-05-20 17:33:00,88.0,70.0,29.63,South,182,2.0,9.0,56,0.00,,,0.00,,2013-05-20 22:33:00,
2013-05-20 17:42:00,88.0,70.0,29.63,South,182,2.0,9.0,56,0.00,,,0.00,,2013-05-20 22:42:00,
2013-05-20 17:52:00,88.0,70.0,29.63,SW,236,1.0,7.0,56,0.00,,,0.00,,2013-05-20 22:52:00,
2013-05-20 18:02:00,86.0,69.0,29.64,South,179,4.0,12.0,58,0.00,,,0.00,,2013-05-20 23:02:00,
2013-05-20 18:12:00,86.0,69.0,29.63,North,7,0.0,0.0,58,0.00,,,0.00,,2013-05-20 23:12:00,
2013-05-20 18:22:00,86.0,69.0,29.63,North,7,0.0,0.0,58,0.00,,,0.00,,2013-05-20 23:22:00,
2013-05-20 18:32:00,85.0,71.0,29.64,SE,146,9.0,20.0,63,0.00,,,0.00,,2013-05-20 23:32:00,
2013-05-20 18:42:00,85.0,71.0,29.64,SE,146,9.0,20.0,63,0.00,,,0.00,,2013-05-20 23:42:00,
2013-05-20 18:53:00,85.0,71.0,29.60,SE,136,12.0,20.0,63,0.00,,,0.00,,2013-05-20 23:53:00,
2013-05-20 19:01:00,85.0,71.0,29.57,SE,125,13.0,21.0,64,0.00,,,0.00,,2013-05-21 00:01:00,
2013-05-20 19:11:00,84.0,71.0,29.59,SE,138,14.0,24.0,66,0.00,,,0.00,,2013-05-21 00:11:00,
2013-05-20 19:21:00,84.0,71.0,29.59,SE,138,14.0,24.0,66,0.00,,,0.00,,2013-05-21 00:21:00,
2013-05-20 19:31:00,84.0,71.0,29.59,SE,135,10.0,25.0,66,0.00,,,0.00,,2013-05-21 00:31:00,
2013-05-20 19:41:00,84.0,72.0,29.59,SE,142,11.0,21.0,67,0.00,,,0.00,,2013-05-21 00:41:00,
2013-05-20 19:52:00,84.0,72.0,29.59,SE,142,11.0,21.0,67,0.00,,,0.00,,2013-05-21 00:52:00,
2013-05-20 20:01:00,84.0,72.0,29.61,SE,140,11.0,21.0,67,0.00,,,0.00,,2013-05-21 01:01:00,
2013-05-20 20:11:00,84.0,72.0,29.58,SE,140,16.0,24.0,67,0.00,,,0.00,,2013-05-21 01:11:00,
2013-05-20 20:21:00,84.0,72.0,29.58,SE,140,16.0,24.0,67,0.00,,,0.00,,2013-05-21 01:21:00,
2013-05-20 20:32:00,83.0,71.0,29.60,SE,134,11.0,20.0,68,0.00,,,0.00,,2013-05-21 01:32:00,
2013-05-20 20:42:00,83.0,71.0,29.58,SSE,166,14.0,23.0,68,0.00,,,0.00,,2013-05-21 01:42:00,
2013-05-20 20:53:00,83.0,71.0,29.58,SSE,166,14.0,23.0,68,0.00,,,0.00,,2013-05-21 01:53:00,
2013-05-20 21:02:00,83.0,71.0,29.60,SE,137,12.0,25.0,67,0.00,,,0.00,,2013-05-21 02:02:00,
2013-05-20 21:11:00,83.0,71.0,29.60,SE,140,12.0,23.0,67,0.00,,,0.00,,2013-05-21 02:11:00,
2013-05-20 21:21:00,83.0,71.0,29.60,SE,140,12.0,23.0,67,0.00,,,0.00,,2013-05-21 02:21:00,
2013-05-20 21:32:00,83.0,71.0,29.61,SE,146,9.0,22.0,68,0.00,,,0.00,,2013-05-21 02:32:00,
2013-05-20 21:41:00,83.0,71.0,29.63,SSE,155,11.0,25.0,68,0.00,,,0.00,,2013-05-21 02:41:00,
2013-05-20 21:52:00,83.0,71.0,29.63,SSE,155,11.0,25.0,68,0.00,,,0.00,,2013-05-21 02:52:00,
2013-05-20 22:02:00,83.0,71.0,29.63,SSE,166,10.0,25.0,68,0.00,,,0.00,,2013-05-21 03:02:00,
2013-05-20 22:11:00,83.0,71.0,29.66,NNE,22,2.0,7.0,68,0.00,,,0.00,,2013-05-21 03:11:00,
2013-05-20 22:21:00,83.0,71.0,29.66,NNE,22,2.0,7.0,68,0.00,,,0.00,,2013-05-21 03:21:00,
2013-05-20 22:33:00,83.0,72.0,29.66,NNE,19,0.0,1.0,69,0.00,,,0.00,,2013-05-21 03:33:00,
2013-05-20 22:43:00,83.0,71.0,29.66,SSE,153,6.0,26.0,67,0.00,,,0.00,,2013-05-21 03:43:00,
2013-05-20 22:53:00,83.0,71.0,29.66,SSE,153,6.0,26.0,67,0.00,,,0.00,,2013-05-21 03:53:00,
2013-05-20 23:03:00,83.0,70.0,29.65,SE,142,13.0,24.0,66,0.00,,,0.00,,2013-05-21 04:03:00,
2013-05-20 23:13:00,83.0,70.0,29.66,SSE,155,6.0,14.0,64,0.00,,,0.00,,2013-05-21 04:13:00,
2013-05-20 23:23:00,83.0,70.0,29.66,SSE,155,6.0,14.0,64,0.00,,,0.00,,2013-05-21 04:23:00,
2013-05-20 23:33:00,83.0,72.0,29.65,SSE,159,15.0,25.0,69,0.00,,,0.00,,2013-05-21 04:33:00,
2013-05-20 23:42:00,83.0,72.0,29.65,SSE,159,15.0,25.0,69,0.00,,,0.00,,2013-05-21 04:42:00,
2013-05-20 23:53:00,82.0,72.0,29.63,SSE,161,23.0,35.0,71,0.00,,,0.00,,2013-05-21 04:53:00,